Regional Weather Roundup
Issued by NWS

Home | Current Version | Previous Version | Text Only | Print | Product List | Glossary On
Versions: 1 2 3 4 5 6 7 8 9 10 11 12 13 14 15 16 17 18 19 20 21 22 23 24 25 26 27 28 29 30 31 32 33 34 35 36 37 38 39 40 41 42 43 44 45 46 47 48 49 50
000
ASUS43 KBIS 211320
RWRND

NORTH DAKOTA REGIONAL WEATHER ROUNDUP
NATIONAL WEATHER SERVICE BISMARCK ND
800 AM CDT TUE OCT 21 2014

NOTE: "FAIR" INDICATES FEW OR NO CLOUDS BELOW 12,000 FEET WITH NO
SIGNIFICANT WEATHER AND/OR OBSTRUCTIONS TO VISIBILITY.


NDZ001>003-009>011-017-211400-
NORTHWEST NORTH DAKOTA

CITY           SKY/WX    TMP DP  RH WIND       PRES   REMARKS
WILLISTON      CLEAR     39  35  86 CALM      29.76S
MINOT          CLEAR     45  35  68 E6        29.81F
MINOT AFB      CLEAR     37  36  97 SE8       29.81F
$$

NDZ018>021-031>035-040>046-211400-
SOUTHWEST NORTH DAKOTA

CITY           SKY/WX    TMP DP  RH WIND       PRES   REMARKS
BISMARCK       CLEAR     46  36  68 E6        29.84F
DICKINSON      CLEAR     38  34  85 SE7       29.76F
GARRISON         N/A     42  37  82 E8        29.81F
HETTINGER ARPT CLEAR     37  34  89 E5        29.79F
$$

NDZ004>008-012>016-024-026-027-054-211400-
NORTHEAST NORTH DAKOTA

CITY           SKY/WX    TMP DP  RH WIND       PRES   REMARKS
GRAND FORKS    CLEAR     37  35  92 SE8       30.03S
GRND FRKS AFB  CLEAR     37  37  99 S8        30.02S
DEVILS LAKE    CLEAR     46  36  66 SE14      29.91S
$$

NDZ022-023-025-028>030-036>039-047>053-211400-
SOUTHEAST NORTH DAKOTA

CITY           SKY/WX    TMP DP  RH WIND       PRES   REMARKS
FARGO          CLEAR     44  38  79 SE16      30.03F
JAMESTOWN      CLEAR     46  38  73 SE14      29.93F
$$



USA.gov is the U.S. government's official web portal to all federal, state and local government web resources and services.